SAS931 -KLAX

Flight info

Callsign SAS931
Flight time N/A
Altitude
Route
Aircraft

Departure

Time N/A
Airport -

Arrival

Time 2026-05-05 21:55
Airport Los Angeles International Airport (KLAX)
Time Latitude Longitude Altitude Speed Heading
2026-05-05 21:48 33.99087 -118.02346 5261 ft 265 kts 263°
2026-05-05 21:48 33.98864 -118.04535 4972 ft 262 kts 262°
2026-05-05 21:48 33.98642 -118.06698 4688 ft 259 kts 262°
2026-05-05 21:48 33.98422 -118.08841 4405 ft 258 kts 262°
2026-05-05 21:49 33.98203 -118.10985 4140 ft 257 kts 262°
2026-05-05 21:49 33.97984 -118.13123 3915 ft 255 kts 262°
2026-05-05 21:49 33.97773 -118.15181 3755 ft 236 kts 262°
2026-05-05 21:49 33.97580 -118.17075 3419 ft 217 kts 262°
2026-05-05 21:50 33.97407 -118.18771 3236 ft 195 kts 262°
2026-05-05 21:50 33.97239 -118.20399 3070 ft 195 kts 262°
2026-05-05 21:50 33.97104 -118.21722 3015 ft 185 kts 262°
2026-05-05 21:50 33.96975 -118.22972 2898 ft 181 kts 262°
2026-05-05 21:51 33.96818 -118.24495 2660 ft 180 kts 262°
2026-05-05 21:51 33.96669 -118.25951 2444 ft 170 kts 262°
2026-05-05 21:51 33.96529 -118.27324 2208 ft 161 kts 262°
2026-05-05 21:51 33.96395 -118.28632 1997 ft 159 kts 263°
2026-05-05 21:52 33.96125 -118.31258 1583 ft 155 kts 263°
2026-05-05 21:52 33.95997 -118.32500 1392 ft 144 kts 264°
2026-05-05 21:52 33.95877 -118.33680 1192 ft 141 kts 264°
2026-05-05 21:53 33.95760 -118.34845 1010 ft 139 kts 263°
2026-05-05 21:53 33.95650 -118.35990 832 ft 135 kts 261°
2026-05-05 21:53 33.95512 -118.37101 670 ft 134 kts 261°
2026-05-05 21:53 33.95396 -118.38214 551 ft 135 kts 262°
2026-05-05 21:54 33.95293 -118.39357 361 ft 138 kts 263°
2026-05-05 21:54 33.95177 -118.40486 165 ft 133 kts 261°
2026-05-05 21:54 33.95057 -118.41511 145 ft 109 kts 265°
2026-05-05 21:54 33.95003 -118.42176 144 ft 50 kts 261°
2026-05-05 21:55 33.94976 -118.42397 144 ft 17 kts 261°
2026-05-05 21:55 33.94944 -118.42541 144 ft 19 kts 243°
2026-05-05 21:55 33.94860 -118.42675 144 ft 20 kts 226°
2026-05-05 21:55 33.94758 -118.42787 144 ft 19 kts 205°
2026-05-05 21:56 33.94646 -118.42772 144 ft 16 kts 122°
2026-05-05 21:56 33.94642 -118.42637 144 ft 17 kts 82°
2026-05-05 21:56 33.94658 -118.42481 144 ft 20 kts 82°
2026-05-05 21:56 33.94677 -118.42305 144 ft 22 kts 83°
2026-05-05 21:57 33.94695 -118.42114 144 ft 24 kts 83°
2026-05-05 21:57 33.94716 -118.41911 144 ft 25 kts 83°
2026-05-05 21:57 33.94738 -118.41701 144 ft 26 kts 82°
2026-05-05 21:57 33.94758 -118.41491 144 ft 19 kts 84°
2026-05-05 21:58 33.94783 -118.41381 144 ft 12 kts 68°
2026-05-05 21:58 33.94758 -118.41303 144 ft 12 kts 147°
2026-05-05 21:58 33.94665 -118.41297 144 ft 16 kts 179°
2026-05-05 21:58 33.94546 -118.41280 144 ft 19 kts 173°
2026-05-05 21:59 33.94428 -118.41263 144 ft 15 kts 173°
2026-05-05 21:59 33.94328 -118.41249 144 ft 15 kts 173°
2026-05-05 21:59 33.94268 -118.41240 144 ft 3 kts 166°
2026-05-05 21:59 33.94257 -118.41223 144 ft 3 kts 101°
2026-05-05 22:00 33.94256 -118.41177 144 ft 6 kts 88°
2026-05-05 22:00 33.94258 -118.41148 144 ft 0 kts 83°